User: anonymous   Login
Location: *
(58.7167°N, 26.1833°E)
Time: 01:46:07
(UTC+00:00)
Language:

RESURS DK-1 - Orbit

View from above orbital plane
View from above orbital plane
View from above satellite
View from above satellite

Ground track
Ground track

The orbit data is extracted from the following two-line orbital elements,

1 29228U 06021A   19294.14900443  .00000084  00000-0  13679-4 0  9994
2 29228  69.9348  79.7190 0001967 142.4004 217.7294 15.02474320736652
Epoch (UTC): 21 October 2019 03:34:33
Eccentricity: 0.0001967
inclination: 69.9348°
perigee height: 558 km
apogee height: 560 km
right ascension of ascending node: 79.7190°
argument of perigee: 142.4004°
revolutions per day: 15.02474320
mean anomaly at epoch: 217.7294°
orbit number at epoch: 73665

The dashed part of the orbit path shows where the satellite is in the earth's shadow,  

DLR